Back to Top

Language: 

My Weather Underground Personal Weather Station Historical Data with Graphs...

Delerius Weather Station Historical Data
Daily Summary for January 10, 2017 Units:  Metric    English   Both
« Previous Day
Next Day »
Daily Weekly Monthly Yearly Custom
  High: Low: Average:
Temperature: 9.3 °C 5.4 °C 7.9 °C
Dew Point: 7.4 °C 3.7 °C 5.8 °C
Humidity: 91 % 80 % 87 %
Wind Speed: 29 km/h 6.4 km/h 17.4 km/h
Wind Gust: 40.2 km/h - -
Wind:- - West
Pressure: 1008.4 hPa 1004.3 hPa -
Precipitation: 0 mm    
Historical Graphs
 
 
Tabular Data for January 10, 2017
Time Temperature Dew Point Pressure Wind Wind Speed Wind Gust Humidity Rainfall Rate (Hourly) solar Conditions
00:00 5.4 °C 3.7 °C 1005.3 hPa West 16.1 km/h 16.1 km/h 89 % 0 mm 0 W/m2
00:05 5.4 °C 3.9 °C 1005.3 hPa SW 14.5 km/h 16.1 km/h 90 % 0 mm 0 W/m2
00:15 5.5 °C 4 °C 1005.3 hPa WSW 17.7 km/h 17.7 km/h 90 % 0 mm 0 W/m2
00:25 5.4 °C 3.9 °C 1005.3 hPa West 16.1 km/h 16.1 km/h 90 % 0 mm 0 W/m2
00:30 5.4 °C 4.1 °C 1005.3 hPa West 16.1 km/h 16.1 km/h 91 % 0 mm 0 W/m2
00:35 5.4 °C 4.1 °C 1005.3 hPa West 17.7 km/h 17.7 km/h 91 % 0 mm 0 W/m2
00:40 5.4 °C 4.1 °C 1005.3 hPa WNW 22.5 km/h 22.5 km/h 91 % 0 mm 0 W/m2
00:50 5.5 °C 4.2 °C 1005.3 hPa West 17.7 km/h 17.7 km/h 91 % 0 mm 0 W/m2
00:55 5.6 °C 4.2 °C 1005 hPa NW 17.7 km/h 17.7 km/h 91 % 0 mm 0 W/m2
01:00 5.7 °C 4.2 °C 1005 hPa West 19.3 km/h 19.3 km/h 90 % 0 mm 0 W/m2
01:05 5.7 °C 4.2 °C 1005 hPa WNW 20.9 km/h 20.9 km/h 90 % 0 mm 0 W/m2
01:10 5.8 °C 4.3 °C 1005 hPa West 17.7 km/h 37 km/h 90 % 0 mm 0 W/m2
01:15 5.8 °C 4.3 °C 1005 hPa WNW 19.3 km/h 37 km/h 90 % 0 mm 0 W/m2
01:25 5.7 °C 4.2 °C 1004.6 hPa WNW 19.3 km/h 37 km/h 90 % 0 mm 0 W/m2
01:30 5.7 °C 4.2 °C 1004.6 hPa WSW 19.3 km/h 37 km/h 90 % 0 mm 0 W/m2
01:35 5.7 °C 4.2 °C 1004.6 hPa WNW 20.9 km/h 37 km/h 90 % 0 mm 0 W/m2
01:40 5.8 °C 4.3 °C 1004.6 hPa West 22.5 km/h 22.5 km/h 90 % 0 mm 0 W/m2
01:45 5.9 °C 4.4 °C 1004.6 hPa WNW 24.1 km/h 24.1 km/h 90 % 0 mm 0 W/m2
01:50 6 °C 4.5 °C 1004.6 hPa West 27.4 km/h 37 km/h 90 % 0 mm 0 W/m2
02:00 6.1 °C 4.6 °C 1004.6 hPa WSW 27.4 km/h 27.4 km/h 90 % 0 mm 0 W/m2
02:05 6.1 °C 4.6 °C 1004.6 hPa WNW 24.1 km/h 37 km/h 90 % 0 mm 0 W/m2
02:10 6.2 °C 4.7 °C 1004.6 hPa NW 24.1 km/h 24.1 km/h 90 % 0 mm 0 W/m2
02:15 6.2 °C 4.6 °C 1005 hPa WNW 22.5 km/h 30.6 km/h 89 % 0 mm 0 W/m2
02:20 6.3 °C 4.6 °C 1004.6 hPa WNW 20.9 km/h 20.9 km/h 89 % 0 mm 0 W/m2
02:25 6.2 °C 4.7 °C 1004.6 hPa West 20.9 km/h 37 km/h 90 % 0 mm 0 W/m2
02:30 6.2 °C 4.7 °C 1004.6 hPa NW 19.3 km/h 19.3 km/h 90 % 0 mm 0 W/m2
02:35 6.2 °C 4.7 °C 1004.6 hPa West 19.3 km/h 40.2 km/h 90 % 0 mm 0 W/m2
02:40 6.2 °C 4.7 °C 1004.3 hPa WNW 20.9 km/h 20.9 km/h 90 % 0 mm 0 W/m2
02:45 6.2 °C 4.7 °C 1004.3 hPa WNW 19.3 km/h 32.2 km/h 90 % 0 mm 0 W/m2
02:55 6.2 °C 4.7 °C 1004.6 hPa WSW 17.7 km/h 22.5 km/h 90 % 0 mm 0 W/m2
03:00 6.2 °C 4.7 °C 1004.6 hPa West 17.7 km/h 37 km/h 90 % 0 mm 0 W/m2
03:05 6.3 °C 4.8 °C 1004.6 hPa NW 22.5 km/h 37 km/h 90 % 0 mm 0 W/m2
03:10 6.3 °C 4.8 °C 1004.6 hPa WNW 20.9 km/h 20.9 km/h 90 % 0 mm 0 W/m2
03:15 6.4 °C 4.9 °C 1004.6 hPa WNW 20.9 km/h 24.1 km/h 90 % 0 mm 0 W/m2
03:20 6.5 °C 5 °C 1004.6 hPa West 20.9 km/h 37 km/h 90 % 0 mm 0 W/m2
03:25 6.6 °C 4.9 °C 1004.6 hPa WNW 20.9 km/h 37 km/h 89 % 0 mm 0 W/m2
03:35 6.6 °C 4.9 °C 1004.6 hPa West 20.9 km/h 37 km/h 89 % 0 mm 0 W/m2
03:40 6.7 °C 5 °C 1004.6 hPa West 20.9 km/h 37 km/h 89 % 0 mm 0 W/m2
03:45 6.6 °C 4.9 °C 1004.6 hPa West 20.9 km/h 37 km/h 89 % 0 mm 0 W/m2
03:50 6.6 °C 4.9 °C 1004.6 hPa West 22.5 km/h 22.5 km/h 89 % 0 mm 0 W/m2
03:55 6.6 °C 4.9 °C 1004.6 hPa West 24.1 km/h 30.6 km/h 89 % 0 mm 0 W/m2
04:00 6.7 °C 4.8 °C 1004.6 hPa WNW 24.1 km/h 24.1 km/h 88 % 0 mm 0 W/m2
04:10 6.8 °C 4.9 °C 1004.6 hPa West 20.9 km/h 20.9 km/h 88 % 0 mm 0 W/m2
04:15 6.8 °C 5 °C 1004.6 hPa WNW 19.3 km/h 37 km/h 88 % 0 mm 0 W/m2
04:20 6.8 °C 5 °C 1004.6 hPa West 17.7 km/h 17.7 km/h 88 % 0 mm 0 W/m2
04:25 6.8 °C 5 °C 1004.3 hPa WNW 17.7 km/h 37 km/h 88 % 0 mm 0 W/m2
04:30 6.8 °C 5 °C 1004.3 hPa WNW 17.7 km/h 37 km/h 88 % 0 mm 0 W/m2
04:40 6.8 °C 4.9 °C 1004.6 hPa NW 17.7 km/h 17.7 km/h 88 % 0 mm 0 W/m2
04:45 6.8 °C 5 °C 1004.6 hPa WNW 17.7 km/h 37 km/h 88 % 0 mm 0 W/m2
04:50 6.8 °C 5 °C 1004.6 hPa WNW 17.7 km/h 17.7 km/h 88 % 0 mm 0 W/m2
04:55 6.9 °C 5.1 °C 1004.6 hPa WNW 19.3 km/h 22.5 km/h 88 % 0 mm 0 W/m2
05:00 6.9 °C 5.1 °C 1004.6 hPa WNW 20.9 km/h 37 km/h 88 % 0 mm 0 W/m2
05:05 6.9 °C 5.1 °C 1004.6 hPa WNW 20.9 km/h 37 km/h 88 % 0 mm 0 W/m2
05:10 6.9 °C 5.1 °C 1004.6 hPa WNW 20.9 km/h 20.9 km/h 88 % 0 mm 0 W/m2
05:20 7 °C 5.2 °C 1004.6 hPa WNW 17.7 km/h 17.7 km/h 88 % 0 mm 0 W/m2
05:25 7 °C 5.2 °C 1004.6 hPa WSW 17.7 km/h 20.9 km/h 88 % 0 mm 0 W/m2
05:30 7 °C 5 °C 1004.6 hPa WNW 19.3 km/h 37 km/h 87 % 0 mm 0 W/m2
05:35 7 °C 5 °C 1005 hPa WNW 22.5 km/h 37 km/h 87 % 0 mm 0 W/m2
05:40 7.1 °C 5.1 °C 1005 hPa WNW 24.1 km/h 37 km/h 87 % 0 mm 0 W/m2
05:45 7.1 °C 5.1 °C 1005 hPa WNW 22.5 km/h 37 km/h 87 % 0 mm 0 W/m2
05:55 7.1 °C 5.3 °C 1005.3 hPa WNW 19.3 km/h 37 km/h 88 % 0 mm 0 W/m2
06:00 7.2 °C 5.2 °C 1005.3 hPa WNW 20.9 km/h 37 km/h 87 % 0 mm 0 W/m2
06:05 7.2 °C 5.2 °C 1005.3 hPa NW 22.5 km/h 37 km/h 87 % 0 mm 0 W/m2
06:10 7.2 °C 5.2 °C 1005.3 hPa West 20.9 km/h 20.9 km/h 87 % 0 mm 0 W/m2
06:11 7.2 °C 5.2 °C 1005.3 hPa WNW 19.3 km/h -1607.7 km/h 87 % 0 mm 0 W/m2
06:15 7.2 °C 5.2 °C 1005.3 hPa NW 19.3 km/h 37 km/h 87 % 0 mm 0 W/m2
06:16 7.2 °C 5.2 °C 1005.3 hPa WNW 19.3 km/h -1607.7 km/h 87 % 0 mm 0 W/m2
06:20 7.2 °C 5.4 °C 1005.3 hPa NW 19.3 km/h 37 km/h 88 % 0 mm 0 W/m2
06:21 7.2 °C 5.2 °C 1005.3 hPa WNW 19.3 km/h -1607.7 km/h 87 % 0 mm 0 W/m2
06:26 7.2 °C 5.4 °C 1005.3 hPa WNW 20.9 km/h -1607.7 km/h 88 % 0 mm 0 W/m2
06:30 7.2 °C 5.4 °C 1005.3 hPa WNW 19.3 km/h 37 km/h 88 % 0 mm 0 W/m2
06:31 7.2 °C 5.4 °C 1005.3 hPa WNW 20.9 km/h -1607.7 km/h 88 % 0 mm 0 W/m2
06:35 7.2 °C 5.4 °C 1005.3 hPa West 19.3 km/h 37 km/h 88 % 0 mm 0 W/m2
06:36 7.2 °C 5.4 °C 1005.3 hPa WNW 20.9 km/h -1607.7 km/h 88 % 0 mm 0 W/m2
06:40 7.2 °C 5.3 °C 1005.6 hPa WNW 17.7 km/h 17.7 km/h 88 % 0 mm 0 W/m2
06:41 7.2 °C 5.3 °C 1005.6 hPa WNW 19.3 km/h -1607.7 km/h 88 % 0 mm 0 W/m2
06:45 7.2 °C 5.3 °C 1005.6 hPa West 20.9 km/h 25.7 km/h 88 % 0 mm 0 W/m2
06:46 7.2 °C 5.3 °C 1005.6 hPa WNW 19.3 km/h -1607.7 km/h 88 % 0 mm 0 W/m2
06:50 7.2 °C 5.3 °C 1005.6 hPa NW 24.1 km/h 37 km/h 88 % 0 mm 0 W/m2
06:51 7.2 °C 5.3 °C 1005.6 hPa WNW 19.3 km/h -1607.7 km/h 88 % 0 mm 0 W/m2
06:56 7.2 °C 5.3 °C 1005.6 hPa WNW 24.1 km/h -1607.7 km/h 88 % 0 mm 0 W/m2
07:00 7.2 °C 5.3 °C 1005.6 hPa West 24.1 km/h 37 km/h 88 % 0 mm 0 W/m2
07:01 7.2 °C 5.3 °C 1005.6 hPa WNW 24.1 km/h -1607.7 km/h 88 % 0 mm 0 W/m2
07:05 7.1 °C 5.3 °C 1005.6 hPa West 24.1 km/h 37 km/h 88 % 0 mm 0 W/m2
07:06 7.2 °C 5.3 °C 1005.6 hPa WNW 24.1 km/h -1607.7 km/h 88 % 0 mm 0 W/m2
07:10 7.1 °C 5.3 °C 1006 hPa West 20.9 km/h 37 km/h 88 % 0 mm 0 W/m2
07:11 7.1 °C 5.3 °C 1006 hPa WNW 20.9 km/h -1607.7 km/h 88 % 0 mm 0 W/m2
07:15 7.1 °C 5.3 °C 1006 hPa WNW 20.9 km/h 37 km/h 88 % 0 mm 0 W/m2
07:16 7.1 °C 5.3 °C 1006 hPa WNW 20.9 km/h -1607.7 km/h 88 % 0 mm 0 W/m2
07:20 7.1 °C 5.3 °C 1005.6 hPa West 20.9 km/h 37 km/h 88 % 0 mm 0 W/m2
07:21 7.1 °C 5.3 °C 1006 hPa WNW 20.9 km/h -1607.7 km/h 88 % 0 mm 0 W/m2
07:25 7.2 °C 5.3 °C 1006 hPa WNW 19.3 km/h 37 km/h 88 % 0 mm 0 W/m2
07:26 7.1 °C 5.3 °C 1006 hPa West 20.9 km/h -1607.7 km/h 88 % 0 mm 0 W/m2
07:31 7.1 °C 5.3 °C 1006 hPa West 20.9 km/h -1607.7 km/h 88 % 0 mm 0 W/m2
07:35 7.2 °C 5.3 °C 1006 hPa WNW 19.3 km/h 37 km/h 88 % 0 mm 0 W/m2
07:36 7.1 °C 5.3 °C 1006 hPa West 20.9 km/h -1607.7 km/h 88 % 0 mm 0 W/m2
07:40 7.2 °C 5.3 °C 1006.3 hPa WNW 17.7 km/h 37 km/h 88 % 0 mm 0 W/m2
07:41 7.2 °C 5.5 °C 1006.3 hPa WNW 19.3 km/h -1607.7 km/h 89 % 0 mm 0 W/m2
07:45 7.2 °C 5.5 °C 1006.3 hPa West 19.3 km/h 37 km/h 89 % 0 mm 0 W/m2
07:46 7.2 °C 5.5 °C 1006.3 hPa WNW 19.3 km/h -1607.7 km/h 89 % 0 mm 0 W/m2
07:50 7.2 °C 5.3 °C 1006.3 hPa WSW 20.9 km/h 20.9 km/h 88 % 0 mm 0 W/m2
07:51 7.2 °C 5.5 °C 1006.3 hPa WNW 19.3 km/h -1607.7 km/h 89 % 0 mm 0 W/m2
07:55 7.2 °C 5.4 °C 1006.3 hPa West 20.9 km/h 24.1 km/h 88 % 0 mm 0 W/m2
07:56 7.2 °C 5.3 °C 1006.3 hPa West 19.3 km/h -1607.7 km/h 88 % 0 mm 0 W/m2
08:00 7.2 °C 5.4 °C 1006.3 hPa West 17.7 km/h 37 km/h 88 % 0 mm 0 W/m2
08:01 7.2 °C 5.3 °C 1006.3 hPa West 19.3 km/h -1607.7 km/h 88 % 0 mm 0 W/m2
08:06 7.2 °C 5.3 °C 1006.3 hPa West 19.3 km/h -1607.7 km/h 88 % 0 mm 0 W/m2
08:10 7.3 °C 5.4 °C 1006.3 hPa West 16.1 km/h 16.1 km/h 88 % 0 mm 0 W/m2
08:11 7.2 °C 5.4 °C 1006.3 hPa WNW 16.1 km/h -1607.7 km/h 88 % 0 mm 0 W/m2
08:15 7.3 °C 5.4 °C 1006.3 hPa WNW 16.1 km/h 19.3 km/h 88 % 0 mm 0 W/m2
08:16 7.2 °C 5.4 °C 1006.3 hPa WNW 16.1 km/h -1607.7 km/h 88 % 0 mm 0 W/m2
08:20 7.3 °C 5.4 °C 1006.3 hPa WNW 16.1 km/h 37 km/h 88 % 0 mm 0 W/m2
08:21 7.2 °C 5.4 °C 1006.3 hPa WNW 16.1 km/h -1607.7 km/h 88 % 0 mm 0 W/m2
08:25 7.3 °C 5.4 °C 1006.7 hPa WNW 14.5 km/h 37 km/h 88 % 0 mm 7 W/m2
08:26 7.3 °C 5.4 °C 1006.7 hPa WNW 14.5 km/h -1607.7 km/h 88 % 0 mm 5 W/m2
08:30 7.2 °C 5.4 °C 1006.7 hPa WNW 14.5 km/h 37 km/h 88 % 0 mm 9 W/m2
08:31 7.3 °C 5.4 °C 1006.7 hPa WNW 14.5 km/h -1607.7 km/h 88 % 0 mm 5 W/m2
08:35 7.3 °C 5.4 °C 1006.7 hPa WNW 14.5 km/h 37 km/h 88 % 0 mm 12 W/m2
08:36 7.3 °C 5.4 °C 1006.7 hPa WNW 14.5 km/h -1607.7 km/h 88 % 0 mm 5 W/m2
08:41 7.3 °C 5.4 °C 1006.7 hPa WNW 16.1 km/h -1607.7 km/h 88 % 0 mm 11 W/m2
08:45 7.3 °C 5.4 °C 1006.7 hPa WNW 16.1 km/h 17.7 km/h 88 % 0 mm 12 W/m2
08:46 7.3 °C 5.4 °C 1006.7 hPa WNW 16.1 km/h -1607.7 km/h 88 % 0 mm 11 W/m2
08:50 7.3 °C 5.4 °C 1006.7 hPa WNW 17.7 km/h 17.7 km/h 88 % 0 mm 19 W/m2
08:51 7.3 °C 5.4 °C 1006.7 hPa WNW 16.1 km/h -1607.7 km/h 88 % 0 mm 11 W/m2
08:55 7.3 °C 5.5 °C 1007 hPa NW 17.7 km/h 37 km/h 88 % 0 mm 23 W/m2
08:56 7.3 °C 5.5 °C 1007 hPa WNW 16.1 km/h -1607.7 km/h 88 % 0 mm 23 W/m2
09:00 7.3 °C 5.5 °C 1007 hPa WNW 17.7 km/h 37 km/h 88 % 0 mm 26 W/m2
09:01 7.3 °C 5.5 °C 1007 hPa WNW 16.1 km/h -1607.7 km/h 88 % 0 mm 23 W/m2
09:05 7.4 °C 5.6 °C 1007 hPa WNW 14.5 km/h 37 km/h 88 % 0 mm 37 W/m2
09:06 7.3 °C 5.5 °C 1007 hPa WNW 16.1 km/h -1607.7 km/h 88 % 0 mm 23 W/m2
09:10 7.4 °C 5.6 °C 1007 hPa WNW 14.5 km/h 14.5 km/h 88 % 0 mm 37 W/m2
09:11 7.4 °C 5.6 °C 1007 hPa WNW 14.5 km/h -1607.7 km/h 88 % 0 mm 37 W/m2
09:16 7.4 °C 5.6 °C 1007 hPa WNW 14.5 km/h -1607.7 km/h 88 % 0 mm 37 W/m2
09:20 7.5 °C 5.7 °C 1007 hPa WNW 16.1 km/h 16.1 km/h 88 % 0 mm 69 W/m2
09:21 7.4 °C 5.6 °C 1007 hPa WNW 14.5 km/h -1607.7 km/h 88 % 0 mm 37 W/m2
09:25 7.6 °C 5.7 °C 1007 hPa WNW 14.5 km/h 24.1 km/h 88 % 0 mm 72 W/m2
09:26 7.6 °C 5.7 °C 1007.3 hPa WNW 16.1 km/h -1607.7 km/h 88 % 0 mm 61 W/m2
09:30 7.6 °C 5.7 °C 1007.3 hPa West 16.1 km/h 37 km/h 88 % 0 mm 63 W/m2
09:31 7.6 °C 5.7 °C 1007.3 hPa WNW 16.1 km/h -1607.7 km/h 88 % 0 mm 61 W/m2
09:35 7.7 °C 5.8 °C 1007.3 hPa West 19.3 km/h 37 km/h 88 % 0 mm 62 W/m2
09:36 7.6 °C 5.7 °C 1007.3 hPa WNW 16.1 km/h -1607.7 km/h 88 % 0 mm 61 W/m2
09:40 7.7 °C 5.7 °C 1007.3 hPa WNW 17.7 km/h 37 km/h 87 % 0 mm 65 W/m2
09:41 7.7 °C 5.8 °C 1007.3 hPa WNW 19.3 km/h -1607.7 km/h 88 % 0 mm 67 W/m2
09:45 7.8 °C 5.9 °C 1007.3 hPa WNW 17.7 km/h 37 km/h 88 % 0 mm 83 W/m2
09:46 7.7 °C 5.8 °C 1007.3 hPa WNW 19.3 km/h -1607.7 km/h 88 % 0 mm 67 W/m2
09:50 7.8 °C 5.8 °C 1007.3 hPa WNW 22.5 km/h 22.5 km/h 87 % 0 mm 151 W/m2
09:51 7.7 °C 5.8 °C 1007.3 hPa WNW 19.3 km/h -1607.7 km/h 88 % 0 mm 67 W/m2
09:56 7.8 °C 5.8 °C 1007.3 hPa WNW 22.5 km/h -1607.7 km/h 87 % 0 mm 104 W/m2
10:00 7.9 °C 5.8 °C 1007.3 hPa WNW 20.9 km/h 20.9 km/h 87 % 0 mm 79 W/m2
10:01 7.8 °C 5.8 °C 1007.3 hPa WNW 22.5 km/h -1607.7 km/h 87 % 0 mm 104 W/m2
10:05 7.9 °C 5.8 °C 1007.3 hPa West 22.5 km/h 29 km/h 87 % 0 mm 118 W/m2
10:06 7.8 °C 5.8 °C 1007.3 hPa WNW 22.5 km/h -1607.7 km/h 87 % 0 mm 104 W/m2
10:10 8 °C 5.9 °C 1007.3 hPa West 22.5 km/h 37 km/h 87 % 0 mm 121 W/m2
10:11 8 °C 5.8 °C 1007.3 hPa WNW 20.9 km/h -1607.7 km/h 86 % 0 mm 124 W/m2
10:15 8.1 °C 5.9 °C 1007.3 hPa West 22.5 km/h 37 km/h 86 % 0 mm 105 W/m2
10:16 8 °C 5.8 °C 1007.3 hPa WNW 20.9 km/h -1607.7 km/h 86 % 0 mm 124 W/m2
10:20 8.2 °C 5.9 °C 1007.3 hPa West 20.9 km/h 20.9 km/h 86 % 0 mm 109 W/m2
10:21 8 °C 5.8 °C 1007.3 hPa WNW 20.9 km/h -1607.7 km/h 86 % 0 mm 124 W/m2
10:25 8.2 °C 5.9 °C 1007.3 hPa WNW 22.5 km/h 25.7 km/h 86 % 0 mm 132 W/m2
10:26 8.2 °C 5.9 °C 1007 hPa WNW 22.5 km/h -1607.7 km/h 86 % 0 mm 135 W/m2
10:31 8.2 °C 5.9 °C 1007 hPa WNW 22.5 km/h -1607.7 km/h 86 % 0 mm 135 W/m2
10:35 8.2 °C 5.9 °C 1007.3 hPa WNW 24.1 km/h 37 km/h 86 % 0 mm 156 W/m2
10:36 8.2 °C 5.9 °C 1007 hPa WNW 22.5 km/h -1607.7 km/h 86 % 0 mm 135 W/m2
10:40 8.2 °C 6 °C 1007.3 hPa WSW 22.5 km/h 22.5 km/h 86 % 0 mm 185 W/m2
10:41 8.2 °C 6 °C 1007.3 hPa WNW 22.5 km/h -1607.7 km/h 86 % 0 mm 153 W/m2
10:45 8.2 °C 6 °C 1007.3 hPa West 20.9 km/h 37 km/h 86 % 0 mm 158 W/m2
10:46 8.2 °C 6 °C 1007.3 hPa WNW 22.5 km/h -1607.7 km/h 86 % 0 mm 153 W/m2
10:50 8.3 °C 6.1 °C 1007.3 hPa West 20.9 km/h 37 km/h 86 % 0 mm 149 W/m2
10:51 8.2 °C 6 °C 1007.3 hPa WNW 22.5 km/h -1607.7 km/h 86 % 0 mm 153 W/m2
10:55 8.3 °C 6.1 °C 1007 hPa WNW 19.3 km/h 37 km/h 86 % 0 mm 95 W/m2
10:56 8.3 °C 6.1 °C 1007 hPa WNW 20.9 km/h -1607.7 km/h 86 % 0 mm 119 W/m2
11:00 8.3 °C 6.1 °C 1007 hPa West 20.9 km/h 20.9 km/h 86 % 0 mm 104 W/m2
11:01 8.3 °C 6.1 °C 1007 hPa WNW 20.9 km/h -1607.7 km/h 86 % 0 mm 119 W/m2
11:06 8.3 °C 6.1 °C 1007 hPa WNW 20.9 km/h -1607.7 km/h 86 % 0 mm 119 W/m2
11:10 8.1 °C 5.9 °C 1007.3 hPa West 17.7 km/h 17.7 km/h 86 % 0 mm 105 W/m2
11:11 8.2 °C 5.9 °C 1007.3 hPa WNW 19.3 km/h -1607.7 km/h 86 % 0 mm 104 W/m2
11:15 8.1 °C 5.9 °C 1007.3 hPa NW 20.9 km/h 20.9 km/h 86 % 0 mm 114 W/m2
11:16 8.2 °C 5.9 °C 1007.3 hPa WNW 19.3 km/h -1607.7 km/h 86 % 0 mm 104 W/m2
11:20 8.1 °C 5.9 °C 1007.3 hPa WNW 19.3 km/h 19.3 km/h 86 % 0 mm 104 W/m2
11:21 8.2 °C 5.9 °C 1007.3 hPa WNW 19.3 km/h -1607.7 km/h 86 % 0 mm 104 W/m2
11:25 8.1 °C 5.9 °C 1007.7 hPa NW 19.3 km/h 37 km/h 86 % 0 mm 76 W/m2
11:26 8.1 °C 6.1 °C 1007.3 hPa WNW 19.3 km/h -1607.7 km/h 87 % 0 mm 95 W/m2
11:30 8.1 °C 6 °C 1007.3 hPa WSW 20.9 km/h 20.9 km/h 87 % 0 mm 104 W/m2
11:31 8.1 °C 6.1 °C 1007.3 hPa WNW 19.3 km/h -1607.7 km/h 87 % 0 mm 95 W/m2
11:35 8 °C 5.9 °C 1007.3 hPa West 20.9 km/h 37 km/h 87 % 0 mm 188 W/m2
11:36 8.1 °C 6.1 °C 1007.3 hPa WNW 19.3 km/h -1607.7 km/h 87 % 0 mm 95 W/m2
11:40 8 °C 5.9 °C 1007.3 hPa WSW 20.9 km/h 37 km/h 87 % 0 mm 111 W/m2
11:41 8 °C 5.8 °C 1007.7 hPa WNW 22.5 km/h -1607.7 km/h 86 % 0 mm 125 W/m2
11:46 8 °C 5.8 °C 1007.7 hPa WNW 22.5 km/h -1607.7 km/h 86 % 0 mm 125 W/m2
11:50 8 °C 5.8 °C 1007.3 hPa NW 24.1 km/h 24.1 km/h 86 % 0 mm 116 W/m2
11:51 8 °C 5.8 °C 1007.7 hPa WNW 22.5 km/h -1607.7 km/h 86 % 0 mm 125 W/m2
11:55 8 °C 5.8 °C 1007.3 hPa WNW 22.5 km/h 37 km/h 86 % 0 mm 125 W/m2
11:56 8 °C 5.6 °C 1007.3 hPa WNW 22.5 km/h -1607.7 km/h 85 % 0 mm 121 W/m2
12:00 8.1 °C 5.7 °C 1007.3 hPa WNW 24.1 km/h 37 km/h 85 % 0 mm 128 W/m2
12:01 8 °C 5.6 °C 1007.3 hPa WNW 22.5 km/h -1607.7 km/h 85 % 0 mm 121 W/m2
12:05 8.1 °C 5.7 °C 1007.3 hPa WNW 22.5 km/h 37 km/h 85 % 0 mm 100 W/m2
12:06 8 °C 5.6 °C 1007.3 hPa WNW 22.5 km/h -1607.7 km/h 85 % 0 mm 121 W/m2
12:10 8.1 °C 5.7 °C 1007.7 hPa WNW 19.3 km/h 19.3 km/h 85 % 0 mm 69 W/m2
12:11 8.1 °C 5.6 °C 1007.3 hPa WNW 19.3 km/h -1607.7 km/h 84 % 0 mm 80 W/m2
12:15 8.1 °C 5.6 °C 1007.3 hPa NW 17.7 km/h 37 km/h 84 % 0 mm 54 W/m2
12:16 8.1 °C 5.6 °C 1007.3 hPa WNW 19.3 km/h -1607.7 km/h 84 % 0 mm 80 W/m2
12:21 8.1 °C 5.6 °C 1007.3 hPa WNW 19.3 km/h -1607.7 km/h 84 % 0 mm 80 W/m2
12:25 8.2 °C 5.6 °C 1007.3 hPa WNW 17.7 km/h 37 km/h 84 % 0 mm 84 W/m2
12:26 8.2 °C 5.6 °C 1007.3 hPa WNW 17.7 km/h -1607.7 km/h 84 % 0 mm 91 W/m2
12:31 8.2 °C 5.6 °C 1007.3 hPa WNW 17.7 km/h -1607.7 km/h 84 % 0 mm 91 W/m2
12:35 8.2 °C 5.5 °C 1007.3 hPa WNW 19.3 km/h 22.5 km/h 83 % 0 mm 104 W/m2
12:36 8.2 °C 5.6 °C 1007.3 hPa WNW 17.7 km/h -1607.7 km/h 84 % 0 mm 91 W/m2
12:40 8.3 °C 5.6 °C 1007.3 hPa West 20.9 km/h 20.9 km/h 83 % 0 mm 97 W/m2
12:41 8.3 °C 5.6 °C 1007.3 hPa WNW 19.3 km/h -1607.7 km/h 83 % 0 mm 132 W/m2
12:45 8.4 °C 5.7 °C 1007.3 hPa West 19.3 km/h 37 km/h 83 % 0 mm 188 W/m2
12:46 8.3 °C 5.6 °C 1007.3 hPa WNW 19.3 km/h -1607.7 km/h 83 % 0 mm 132 W/m2
12:50 8.5 °C 5.6 °C 1007.3 hPa NW 17.7 km/h 17.7 km/h 82 % 0 mm 234 W/m2
12:51 8.3 °C 5.6 °C 1007.3 hPa WNW 19.3 km/h -1607.7 km/h 83 % 0 mm 132 W/m2
12:55 8.7 °C 5.8 °C 1007.3 hPa NW 17.7 km/h 20.9 km/h 82 % 0 mm 207 W/m2
12:56 8.6 °C 5.6 °C 1007.3 hPa WNW 17.7 km/h -1607.7 km/h 81 % 0 mm 183 W/m2
13:00 8.8 °C 5.7 °C 1007.3 hPa NW 17.7 km/h 37 km/h 81 % 0 mm 83 W/m2
13:01 8.6 °C 5.6 °C 1007.3 hPa WNW 17.7 km/h -1607.7 km/h 81 % 0 mm 183 W/m2
13:06 8.6 °C 5.6 °C 1007.3 hPa WNW 17.7 km/h -1607.7 km/h 81 % 0 mm 183 W/m2
13:10 8.7 °C 5.7 °C 1007.7 hPa WNW 16.1 km/h 16.1 km/h 81 % 0 mm 100 W/m2
13:11 8.8 °C 5.7 °C 1007.7 hPa WNW 16.1 km/h -1607.7 km/h 81 % 0 mm 122 W/m2
13:15 8.8 °C 5.7 °C 1007.7 hPa West 16.1 km/h 37 km/h 81 % 0 mm 202 W/m2
13:16 8.8 °C 5.7 °C 1007.7 hPa WNW 16.1 km/h -1607.7 km/h 81 % 0 mm 122 W/m2
13:20 8.9 °C 5.8 °C 1007.3 hPa WNW 17.7 km/h 37 km/h 81 % 0 mm 200 W/m2
13:21 8.8 °C 5.7 °C 1007.7 hPa WNW 16.1 km/h -1607.7 km/h 81 % 0 mm 122 W/m2
13:25 9 °C 5.7 °C 1007.3 hPa WSW 19.3 km/h 37 km/h 80 % 0 mm 77 W/m2
13:26 8.9 °C 5.7 °C 1007.3 hPa WNW 19.3 km/h -1607.7 km/h 80 % 0 mm 117 W/m2
13:31 8.9 °C 5.7 °C 1007.3 hPa WNW 19.3 km/h -1607.7 km/h 80 % 0 mm 117 W/m2
13:35 8.8 °C 5.7 °C 1007.7 hPa WNW 17.7 km/h 37 km/h 81 % 0 mm 188 W/m2
13:36 8.9 °C 5.7 °C 1007.3 hPa WNW 19.3 km/h -1607.7 km/h 80 % 0 mm 117 W/m2
13:41 8.9 °C 5.8 °C 1007.7 hPa WNW 19.3 km/h -1607.7 km/h 81 % 0 mm 127 W/m2
13:45 8.9 °C 5.8 °C 1007.7 hPa WNW 20.9 km/h 37 km/h 81 % 0 mm 91 W/m2
13:46 8.9 °C 5.8 °C 1007.7 hPa WNW 19.3 km/h -1607.7 km/h 81 % 0 mm 127 W/m2
13:50 8.8 °C 5.9 °C 1007.3 hPa WNW 22.5 km/h 22.5 km/h 82 % 0 mm 107 W/m2
13:51 8.9 °C 5.8 °C 1007.7 hPa WNW 19.3 km/h -1607.7 km/h 81 % 0 mm 127 W/m2
13:55 8.8 °C 5.9 °C 1007.3 hPa West 22.5 km/h 37 km/h 82 % 0 mm 105 W/m2
13:56 8.8 °C 5.9 °C 1007.7 hPa WNW 22.5 km/h -1607.7 km/h 82 % 0 mm 118 W/m2
14:00 8.8 °C 5.9 °C 1007.7 hPa WNW 22.5 km/h 22.5 km/h 82 % 0 mm 111 W/m2
14:01 8.8 °C 5.9 °C 1007.7 hPa WNW 22.5 km/h -1607.7 km/h 82 % 0 mm 118 W/m2
14:05 8.8 °C 6.1 °C 1007.7 hPa West 22.5 km/h 37 km/h 83 % 0 mm 200 W/m2
14:06 8.8 °C 5.9 °C 1007.7 hPa WNW 22.5 km/h -1607.7 km/h 82 % 0 mm 118 W/m2
14:10 8.9 °C 6 °C 1007.7 hPa West 19.3 km/h 37 km/h 82 % 0 mm 74 W/m2
14:11 8.8 °C 6.1 °C 1007.3 hPa WNW 16.1 km/h -1607.7 km/h 83 % 0 mm 121 W/m2
14:15 8.8 °C 5.9 °C 1007.3 hPa WNW 16.1 km/h 37 km/h 82 % 0 mm 135 W/m2
14:16 8.8 °C 6.1 °C 1007.3 hPa WNW 16.1 km/h -1607.7 km/h 83 % 0 mm 121 W/m2
14:21 8.8 °C 6.1 °C 1007.3 hPa WNW 16.1 km/h -1607.7 km/h 83 % 0 mm 121 W/m2
14:25 8.8 °C 6.2 °C 1007.7 hPa West 12.9 km/h 20.9 km/h 84 % 0 mm 47 W/m2
14:26 8.8 °C 6.2 °C 1008 hPa West 14.5 km/h -1607.7 km/h 84 % 0 mm 46 W/m2
14:30 8.7 °C 6.2 °C 1008 hPa West 14.5 km/h 14.5 km/h 84 % 0 mm 44 W/m2
14:31 8.8 °C 6.2 °C 1008 hPa West 14.5 km/h -1607.7 km/h 84 % 0 mm 46 W/m2
14:35 8.7 °C 6.3 °C 1007.3 hPa West 16.1 km/h 20.9 km/h 85 % 0 mm 42 W/m2
14:36 8.8 °C 6.2 °C 1008 hPa West 14.5 km/h -1607.7 km/h 84 % 0 mm 46 W/m2
14:40 8.6 °C 6.2 °C 1007.7 hPa SW 16.1 km/h 37 km/h 85 % 0 mm 67 W/m2
14:41 8.6 °C 6.4 °C 1007.7 hPa West 16.1 km/h -1607.7 km/h 86 % 0 mm 49 W/m2
14:45 8.6 °C 6.3 °C 1007.7 hPa WNW 14.5 km/h 37 km/h 86 % 0 mm 40 W/m2
14:46 8.6 °C 6.4 °C 1007.7 hPa West 16.1 km/h -1607.7 km/h 86 % 0 mm 49 W/m2
14:50 8.5 °C 6.3 °C 1007.7 hPa West 12.9 km/h 12.9 km/h 86 % 0 mm 35 W/m2
14:51 8.6 °C 6.4 °C 1007.7 hPa West 16.1 km/h -1607.7 km/h 86 % 0 mm 49 W/m2
14:56 8.5 °C 6.4 °C 1007.7 hPa WSW 9.7 km/h -1607.7 km/h 87 % 0 mm 36 W/m2
15:00 8.4 °C 6.2 °C 1007.7 hPa West 8 km/h 8 km/h 86 % 0 mm 32 W/m2
15:01 8.5 °C 6.4 °C 1007.7 hPa WSW 9.7 km/h -1607.7 km/h 87 % 0 mm 36 W/m2
15:05 8.4 °C 6.3 °C 1008 hPa WSW 9.7 km/h 14.5 km/h 87 % 0 mm 25 W/m2
15:06 8.5 °C 6.4 °C 1007.7 hPa WSW 9.7 km/h -1607.7 km/h 87 % 0 mm 36 W/m2
15:10 8.4 °C 6.3 °C 1008 hPa West 14.5 km/h 37 km/h 87 % 0 mm 23 W/m2
15:11 8.4 °C 6.3 °C 1008 hPa West 14.5 km/h -1607.7 km/h 87 % 0 mm 24 W/m2
15:15 8.4 °C 6.3 °C 1008 hPa WNW 14.5 km/h 37 km/h 87 % 0 mm 23 W/m2
15:16 8.4 °C 6.3 °C 1008 hPa West 14.5 km/h -1607.7 km/h 87 % 0 mm 24 W/m2
15:20 8.4 °C 6.5 °C 1008 hPa West 14.5 km/h 14.5 km/h 88 % 0 mm 25 W/m2
15:21 8.4 °C 6.3 °C 1008 hPa West 14.5 km/h -1607.7 km/h 87 % 0 mm 24 W/m2
15:25 8.3 °C 6.4 °C 1007.7 hPa WSW 12.9 km/h 37 km/h 88 % 0 mm 18 W/m2
15:26 8.3 °C 6.4 °C 1007.7 hPa WSW 11.3 km/h -1607.7 km/h 88 % 0 mm 18 W/m2
15:31 8.3 °C 6.4 °C 1007.7 hPa WSW 11.3 km/h -1607.7 km/h 88 % 0 mm 18 W/m2
15:35 8.3 °C 6.4 °C 1007.7 hPa WSW 11.3 km/h 37 km/h 88 % 0 mm 11 W/m2
15:40 8.3 °C 6.4 °C 1007.7 hPa West 11.3 km/h 37 km/h 88 % 0 mm 9 W/m2
15:41 8.3 °C 6.4 °C 1007.7 hPa SW 9.7 km/h -1607.7 km/h 88 % 0 mm 10 W/m2
15:45 8.2 °C 6.3 °C 1007.7 hPa SW 9.7 km/h 37 km/h 88 % 0 mm 9 W/m2
15:46 8.3 °C 6.4 °C 1007.7 hPa SW 9.7 km/h -1607.7 km/h 88 % 0 mm 10 W/m2
15:50 8.2 °C 6.3 °C 1007.7 hPa SW 9.7 km/h 9.7 km/h 88 % 0 mm 7 W/m2
15:51 8.3 °C 6.4 °C 1007.7 hPa SW 9.7 km/h -1607.7 km/h 88 % 0 mm 10 W/m2
15:55 8.2 °C 6.5 °C 1008 hPa WSW 8 km/h 37 km/h 89 % 0 mm 0 W/m2
15:56 8.2 °C 6.5 °C 1008 hPa SW 6.4 km/h -1607.7 km/h 89 % 0 mm 3 W/m2
16:00 8.2 °C 6.5 °C 1008 hPa SW 6.4 km/h 6.4 km/h 89 % 0 mm 0 W/m2
16:01 8.2 °C 6.5 °C 1008 hPa SW 6.4 km/h -1607.7 km/h 89 % 0 mm 3 W/m2
16:06 8.2 °C 6.5 °C 1008 hPa SW 6.4 km/h -1607.7 km/h 89 % 0 mm 3 W/m2
16:10 8.3 °C 6.6 °C 1008 hPa WSW 6.4 km/h 37 km/h 89 % 0 mm 0 W/m2
16:11 8.3 °C 6.7 °C 1008 hPa West 9.7 km/h -1607.7 km/h 90 % 0 mm 0 W/m2
16:15 8.3 °C 6.8 °C 1008 hPa West 11.3 km/h 37 km/h 90 % 0 mm 0 W/m2
16:16 8.3 °C 6.7 °C 1008 hPa West 9.7 km/h -1607.7 km/h 90 % 0 mm 0 W/m2
16:20 8.3 °C 6.8 °C 1008 hPa West 12.9 km/h 12.9 km/h 90 % 0 mm 0 W/m2
16:21 8.3 °C 6.7 °C 1008 hPa West 9.7 km/h -1607.7 km/h 90 % 0 mm 0 W/m2
16:25 8.4 °C 6.8 °C 1008 hPa WSW 11.3 km/h 16.1 km/h 90 % 0 mm 0 W/m2
16:26 8.4 °C 7 °C 1007.7 hPa WSW 9.7 km/h -1607.7 km/h 91 % 0 mm 0 W/m2
16:31 8.4 °C 7 °C 1007.7 hPa WSW 9.7 km/h -1607.7 km/h 91 % 0 mm 0 W/m2
16:35 8.4 °C 7.1 °C 1008 hPa WSW 9.7 km/h 37 km/h 91 % 0 mm 0 W/m2
16:36 8.4 °C 7 °C 1007.7 hPa WSW 9.7 km/h -1607.7 km/h 91 % 0 mm 0 W/m2
16:40 8.4 °C 7.1 °C 1007.7 hPa West 9.7 km/h 9.7 km/h 91 % 0 mm 0 W/m2
16:41 8.4 °C 7.1 °C 1007.7 hPa WSW 9.7 km/h -1607.7 km/h 91 % 0 mm 0 W/m2
16:45 8.4 °C 7.1 °C 1007.7 hPa WSW 8 km/h 37 km/h 91 % 0 mm 0 W/m2
16:46 8.4 °C 7.1 °C 1007.7 hPa WSW 9.7 km/h -1607.7 km/h 91 % 0 mm 0 W/m2
16:51 8.4 °C 7.1 °C 1007.7 hPa WSW 9.7 km/h -1607.7 km/h 91 % 0 mm 0 W/m2
16:55 8.5 °C 7.1 °C 1007.7 hPa SW 8 km/h 37 km/h 91 % 0 mm 0 W/m2
16:56 8.5 °C 7.1 °C 1007.7 hPa SSW 9.7 km/h -1607.7 km/h 91 % 0 mm 0 W/m2
17:00 8.6 °C 7.2 °C 1007.7 hPa WSW 9.7 km/h 37 km/h 91 % 0 mm 0 W/m2
17:01 8.5 °C 7.1 °C 1007.7 hPa SSW 9.7 km/h -1607.7 km/h 91 % 0 mm 0 W/m2
17:05 8.6 °C 7.2 °C 1007.7 hPa WSW 9.7 km/h 37 km/h 91 % 0 mm 0 W/m2
17:06 8.5 °C 7.1 °C 1007.7 hPa SSW 9.7 km/h -1607.7 km/h 91 % 0 mm 0 W/m2
17:10 8.7 °C 7.3 °C 1008 hPa WSW 8 km/h 37 km/h 91 % 0 mm 0 W/m2
17:11 8.7 °C 7.3 °C 1008 hPa WSW 9.7 km/h -1607.7 km/h 91 % 0 mm 0 W/m2
17:15 8.7 °C 7.3 °C 1008 hPa WSW 9.7 km/h 37 km/h 91 % 0 mm 0 W/m2
17:16 8.7 °C 7.3 °C 1008 hPa WSW 9.7 km/h -1607.7 km/h 91 % 0 mm 0 W/m2
17:20 8.8 °C 7.4 °C 1008 hPa SW 9.7 km/h 9.7 km/h 91 % 0 mm 0 W/m2
17:21 8.7 °C 7.3 °C 1008 hPa WSW 9.7 km/h -1607.7 km/h 91 % 0 mm 0 W/m2
17:26 8.8 °C 7.4 °C 1008.4 hPa West 9.7 km/h -1607.7 km/h 91 % 0 mm 0 W/m2
17:30 8.8 °C 7.4 °C 1008.4 hPa WSW 9.7 km/h 37 km/h 91 % 0 mm 0 W/m2
17:31 8.8 °C 7.4 °C 1008.4 hPa West 9.7 km/h -1607.7 km/h 91 % 0 mm 0 W/m2
17:35 8.8 °C 7.3 °C 1008 hPa West 11.3 km/h 37 km/h 90 % 0 mm 0 W/m2
17:36 8.8 °C 7.4 °C 1008.4 hPa West 9.7 km/h -1607.7 km/h 91 % 0 mm 0 W/m2
17:41 8.9 °C 7 °C 1008 hPa West 12.9 km/h -1607.7 km/h 88 % 0 mm 0 W/m2
17:46 8.9 °C 7 °C 1008 hPa West 12.9 km/h -1607.7 km/h 88 % 0 mm 0 W/m2
17:51 8.9 °C 7 °C 1008 hPa West 12.9 km/h -1607.7 km/h 88 % 0 mm 0 W/m2
17:56 9.1 °C 7 °C 1008 hPa West 17.7 km/h -1607.7 km/h 87 % 0 mm 0 W/m2
18:01 9.1 °C 7 °C 1008 hPa West 17.7 km/h -1607.7 km/h 87 % 0 mm 0 W/m2
18:06 9.1 °C 7 °C 1008 hPa West 17.7 km/h -1607.7 km/h 87 % 0 mm 0 W/m2
18:11 9.2 °C 7.1 °C 1007.7 hPa West 14.5 km/h -1607.7 km/h 87 % 0 mm 0 W/m2
18:16 9.2 °C 7.1 °C 1007.7 hPa West 14.5 km/h -1607.7 km/h 87 % 0 mm 0 W/m2
18:21 9.2 °C 7.1 °C 1007.7 hPa West 14.5 km/h -1607.7 km/h 87 % 0 mm 0 W/m2
18:26 9.2 °C 7 °C 1008 hPa West 12.9 km/h -1607.7 km/h 86 % 0 mm 0 W/m2
18:31 9.2 °C 7 °C 1008 hPa West 12.9 km/h -1607.7 km/h 86 % 0 mm 0 W/m2
18:36 9.2 °C 7 °C 1008 hPa West 12.9 km/h -1607.7 km/h 86 % 0 mm 0 W/m2
18:41 9.3 °C 7.1 °C 1008 hPa WNW 11.3 km/h -1607.7 km/h 86 % 0 mm 0 W/m2
18:46 9.3 °C 7.1 °C 1008 hPa WNW 11.3 km/h -1607.7 km/h 86 % 0 mm 0 W/m2
18:51 9.3 °C 7.1 °C 1008 hPa WNW 11.3 km/h -1607.7 km/h 86 % 0 mm 0 W/m2
18:56 9.2 °C 6.8 °C 1008 hPa WNW 14.5 km/h -1607.7 km/h 85 % 0 mm 0 W/m2
19:01 9.2 °C 6.8 °C 1008 hPa WNW 14.5 km/h -1607.7 km/h 85 % 0 mm 0 W/m2
19:06 9.2 °C 6.8 °C 1008 hPa WNW 14.5 km/h -1607.7 km/h 85 % 0 mm 0 W/m2
19:11 9 °C 6.6 °C 1008 hPa WNW 11.3 km/h -1607.7 km/h 85 % 0 mm 0 W/m2
19:16 9 °C 6.6 °C 1008 hPa WNW 11.3 km/h -1607.7 km/h 85 % 0 mm 0 W/m2
19:21 9 °C 6.6 °C 1008 hPa WNW 11.3 km/h -1607.7 km/h 85 % 0 mm 0 W/m2
19:26 8.9 °C 6.5 °C 1008 hPa WNW 9.7 km/h -1607.7 km/h 85 % 0 mm 0 W/m2
19:31 8.9 °C 6.5 °C 1008 hPa WNW 9.7 km/h -1607.7 km/h 85 % 0 mm 0 W/m2
19:36 8.9 °C 6.5 °C 1008 hPa WNW 9.7 km/h -1607.7 km/h 85 % 0 mm 0 W/m2
19:41 8.9 °C 6.3 °C 1007.7 hPa West 12.9 km/h -1607.7 km/h 84 % 0 mm 0 W/m2
19:46 8.9 °C 6.3 °C 1007.7 hPa West 12.9 km/h -1607.7 km/h 84 % 0 mm 0 W/m2
19:51 8.9 °C 6.3 °C 1007.7 hPa West 12.9 km/h -1607.7 km/h 84 % 0 mm 0 W/m2
19:56 9 °C 6.4 °C 1007.3 hPa West 14.5 km/h -1607.7 km/h 84 % 0 mm 0 W/m2
20:01 9 °C 6.4 °C 1007.3 hPa West 14.5 km/h -1607.7 km/h 84 % 0 mm 0 W/m2
20:06 9 °C 6.4 °C 1007.3 hPa West 14.5 km/h -1607.7 km/h 84 % 0 mm 0 W/m2
20:11 8.9 °C 6.2 °C 1007.7 hPa WNW 11.3 km/h -1607.7 km/h 83 % 0 mm 0 W/m2
20:16 8.9 °C 6.2 °C 1007.7 hPa WNW 11.3 km/h -1607.7 km/h 83 % 0 mm 0 W/m2
20:21 8.9 °C 6.2 °C 1007.7 hPa WNW 11.3 km/h -1607.7 km/h 83 % 0 mm 0 W/m2
20:26 8.8 °C 6.3 °C 1007 hPa West 12.9 km/h -1607.7 km/h 84 % 0 mm 0 W/m2
20:31 8.8 °C 6.3 °C 1007 hPa West 12.9 km/h -1607.7 km/h 84 % 0 mm 0 W/m2
20:36 8.8 °C 6.3 °C 1007 hPa West 12.9 km/h -1607.7 km/h 84 % 0 mm 0 W/m2
20:41 8.8 °C 6.2 °C 1007.3 hPa West 14.5 km/h -1607.7 km/h 84 % 0 mm 0 W/m2
20:46 8.8 °C 6.2 °C 1007.3 hPa West 14.5 km/h -1607.7 km/h 84 % 0 mm 0 W/m2
20:51 8.8 °C 6.2 °C 1007.3 hPa West 14.5 km/h -1607.7 km/h 84 % 0 mm 0 W/m2
20:56 8.8 °C 6.2 °C 1007.7 hPa WNW 14.5 km/h -1607.7 km/h 84 % 0 mm 0 W/m2
21:01 8.8 °C 6.2 °C 1007.7 hPa WNW 14.5 km/h -1607.7 km/h 84 % 0 mm 0 W/m2
21:06 8.8 °C 6.2 °C 1007.7 hPa WNW 14.5 km/h -1607.7 km/h 84 % 0 mm 0 W/m2
21:11 8.8 °C 6.3 °C 1007.3 hPa WNW 19.3 km/h -1607.7 km/h 84 % 0 mm 0 W/m2
21:16 8.8 °C 6.3 °C 1007.3 hPa WNW 19.3 km/h -1607.7 km/h 84 % 0 mm 0 W/m2
21:21 8.8 °C 6.3 °C 1007.3 hPa WNW 19.3 km/h -1607.7 km/h 84 % 0 mm 0 W/m2
21:26 8.8 °C 6.3 °C 1006.3 hPa West 22.5 km/h -1607.7 km/h 84 % 0 mm 0 W/m2
21:31 8.8 °C 6.3 °C 1006.3 hPa West 22.5 km/h -1607.7 km/h 84 % 0 mm 0 W/m2
21:36 8.8 °C 6.3 °C 1006.3 hPa West 22.5 km/h -1607.7 km/h 84 % 0 mm 0 W/m2
21:41 8.8 °C 6.2 °C 1006.7 hPa WNW 17.7 km/h -1607.7 km/h 84 % 0 mm 0 W/m2
21:46 8.8 °C 6.2 °C 1006.7 hPa WNW 17.7 km/h -1607.7 km/h 84 % 0 mm 0 W/m2
21:51 8.8 °C 6.2 °C 1006.7 hPa WNW 17.7 km/h -1607.7 km/h 84 % 0 mm 0 W/m2
21:56 8.7 °C 6.3 °C 1006.7 hPa West 17.7 km/h -1607.7 km/h 85 % 0 mm 0 W/m2
22:01 8.7 °C 6.3 °C 1006.7 hPa West 17.7 km/h -1607.7 km/h 85 % 0 mm 0 W/m2
22:06 8.7 °C 6.3 °C 1006.7 hPa West 17.7 km/h -1607.7 km/h 85 % 0 mm 0 W/m2
22:11 8.7 °C 6.2 °C 1006.3 hPa West 11.3 km/h -1607.7 km/h 84 % 0 mm 0 W/m2
22:16 8.7 °C 6.2 °C 1006.3 hPa West 11.3 km/h -1607.7 km/h 84 % 0 mm 0 W/m2
22:21 8.7 °C 6.2 °C 1006.3 hPa West 11.3 km/h -1607.7 km/h 84 % 0 mm 0 W/m2
22:26 8.7 °C 6.3 °C 1005.6 hPa SW 8 km/h -1607.7 km/h 85 % 0 mm 0 W/m2
22:31 8.7 °C 6.3 °C 1005.6 hPa SW 8 km/h -1607.7 km/h 85 % 0 mm 0 W/m2
22:36 8.7 °C 6.3 °C 1005.6 hPa SW 8 km/h -1607.7 km/h 85 % 0 mm 0 W/m2
22:41 8.7 °C 6.4 °C 1006 hPa West 24.1 km/h -1607.7 km/h 86 % 0 mm 0 W/m2
22:46 8.7 °C 6.4 °C 1006 hPa West 24.1 km/h -1607.7 km/h 86 % 0 mm 0 W/m2
22:51 8.7 °C 6.4 °C 1006 hPa West 24.1 km/h -1607.7 km/h 86 % 0 mm 0 W/m2
22:56 8.7 °C 6.4 °C 1006 hPa West 29 km/h -1607.7 km/h 86 % 0 mm 0 W/m2
23:01 8.7 °C 6.4 °C 1006 hPa West 29 km/h -1607.7 km/h 86 % 0 mm 0 W/m2
23:06 8.7 °C 6.4 °C 1006 hPa West 29 km/h -1607.7 km/h 86 % 0 mm 0 W/m2
23:11 8.7 °C 6.5 °C 1006.3 hPa West 27.4 km/h -1607.7 km/h 86 % 0 mm 0 W/m2
23:16 8.7 °C 6.5 °C 1006.3 hPa West 27.4 km/h -1607.7 km/h 86 % 0 mm 0 W/m2
23:21 8.7 °C 6.5 °C 1006.3 hPa West 27.4 km/h -1607.7 km/h 86 % 0 mm 0 W/m2
23:26 8.7 °C 6.5 °C 1006.7 hPa West 19.3 km/h -1607.7 km/h 86 % 0 mm 0 W/m2
23:31 8.7 °C 6.5 °C 1006.7 hPa West 19.3 km/h -1607.7 km/h 86 % 0 mm 0 W/m2
23:36 8.7 °C 6.5 °C 1006.7 hPa West 19.3 km/h -1607.7 km/h 86 % 0 mm 0 W/m2
23:41 8.7 °C 6.6 °C 1005.3 hPa WSW 19.3 km/h -1607.7 km/h 87 % 0 mm 0 W/m2
23:46 8.7 °C 6.6 °C 1005.3 hPa WSW 19.3 km/h -1607.7 km/h 87 % 0 mm 0 W/m2
23:51 8.7 °C 6.6 °C 1005.3 hPa WSW 19.3 km/h -1607.7 km/h 87 % 0 mm 0 W/m2
23:56 8.6 °C 6.6 °C 1005.3 hPa West 20.9 km/h -1607.7 km/h 87 % 0 mm 0 W/m2
Delerius-Weather
Compliments of Weather Underground - 3 mb

Data updates at regular intervals.